Chicago DuPage, IL

12:54 PM CDT on June 27, 2017 (GMT -0500)
Du Page

Weather History for KDPA - March, 2014

Change the Weather History Date:

Thursday, March 6, 2014

  Actual Average Record
Temperature  
Mean Temperature 21 °F 34 °F  
Max Temperature 31 °F 44 °F 70 °F (2000)
Min Temperature 10 °F 25 °F -2 °F (2015)
Degree Days  
Heating Degree Days 44 31  
Month to date heating degree days 301 190  
Since 1 July heating degree days 6077 4945  
Cooling Degree Days 0 0  
Month to date cooling degree days 0 0  
Year to date cooling degree days 0 0  
Moisture  
Dew Point 12 °F    
Average Humidity 68    
Maximum Humidity 81    
Minimum Humidity 54    
Precipitation  
Precipitation 0.00 in 0.07 in 0.02 in (2006)
Month to date precipitation T 0.45  
Year to date precipitation 1.22 3.18  
Sea Level Pressure  
Sea Level Pressure 30.28 in    
Wind  
Wind Speed 5 mph (SE)    
Max Wind Speed 12 mph    
Max Gust Speed 13 mph    
Visibility 10 miles    
Events      
T = Trace of Precipitation, MM = Missing Value Source: NWS Daily Summary

Daily Weather History Graph

Daily Weather History Graph

Search for Another Location

Airport or City:

Trip Planner

Search our weather history database for the weather conditions in past years. The results will help you decide how hot, cold, wet, or windy it might be!

Date:

Astronomy

Mar. 06, 2014 Rise Set
Actual Time 6:19 AM CST 5:49 PM CST
Civil Twilight 5:52 AM CST 6:17 PM CST
Nautical Twilight 5:19 AM CST 6:49 PM CST
Astronomical Twilight 4:47 AM CST 7:21 PM CST
Moon 9:22 AM CST (3/6) No Moon Set
Length of Visible Light 12h 25m
Length of Day
11h 29m
Waxing Crescent, 32% of the Moon is Illuminated
Mar 6
Waxing Crescent
Mar 8
First Quarter
Mar 16
Full
Mar 23
Last Quarter
Mar 30
New

Hourly Weather History & Observations

Time (CST) Temp. Windchill Dew Point Humidity Pressure Visibility Wind Dir Wind Speed Gust Speed Precip Events Conditions
12:52 AM 18.0 °F 8.7 °F 10.9 °F 74% 30.44 in 10.0 mi East 6.9 mph - N/A   Clear
1:52 AM 18.0 °F 8.7 °F 10.9 °F 74% 30.42 in 10.0 mi East 6.9 mph - N/A   Clear
2:52 AM 17.1 °F 6.6 °F 10.0 °F 74% 30.42 in 10.0 mi East 8.1 mph - N/A   Clear
3:52 AM 17.1 °F 7.6 °F 9.0 °F 71% 30.40 in 10.0 mi East 6.9 mph - N/A   Clear
4:52 AM 15.1 °F 6.4 °F 8.1 °F 74% 30.40 in 10.0 mi ENE 5.8 mph - N/A   Clear
5:52 AM 12.9 °F 3.8 °F 7.0 °F 77% 30.39 in 10.0 mi East 5.8 mph - N/A   Clear
6:52 AM 10.9 °F 4.7 °F 6.1 °F 81% 30.38 in 9.0 mi ENE 3.5 mph - N/A   Clear
7:52 AM 17.1 °F 6.6 °F 9.0 °F 71% 30.38 in 10.0 mi East 8.1 mph - N/A   Clear
8:52 AM 19.9 °F 12.1 °F 10.0 °F 65% 30.36 in 10.0 mi ESE 5.8 mph - N/A   Clear
9:52 AM 23.0 °F 15.8 °F 10.9 °F 60% 30.35 in 10.0 mi East 5.8 mph - N/A   Clear
10:52 AM 25.0 °F 20.7 °F 12.0 °F 58% 30.34 in 10.0 mi Variable 3.5 mph - N/A   Clear
11:52 AM 27.0 °F 21.6 °F 14.0 °F 58% 30.31 in 10.0 mi South 4.6 mph - N/A   Clear
12:52 PM 28.9 °F 25.2 °F 14.0 °F 54% 30.28 in 10.0 mi SW 3.5 mph - N/A   Clear
1:52 PM 28.9 °F 23.9 °F 15.1 °F 56% 30.24 in 10.0 mi SW 4.6 mph - N/A   Clear
2:52 PM 30.9 °F 23.5 °F 17.1 °F 57% 30.22 in 10.0 mi South 8.1 mph - N/A   Clear
3:52 PM 30.9 °F 25.2 °F 16.0 °F 54% 30.21 in 10.0 mi SSW 5.8 mph - N/A   Clear
4:52 PM 30.0 °F 26.5 °F 17.1 °F 59% 30.18 in 10.0 mi South 3.5 mph - N/A   Clear
5:52 PM 25.0 °F 20.7 °F 16.0 °F 69% 30.18 in 9.0 mi WSW 3.5 mph - N/A   Clear
6:52 PM 24.1 °F - 15.1 °F 69% 30.16 in 10.0 mi Calm Calm - N/A   Clear
7:52 PM 19.0 °F 13.9 °F 12.9 °F 77% 30.16 in 9.0 mi South 3.5 mph - N/A   Clear
8:52 PM 16.0 °F 8.8 °F 10.9 °F 81% 30.15 in 8.0 mi SE 4.6 mph - N/A   Clear
9:52 PM 19.0 °F 11.1 °F 12.0 °F 74% 30.14 in 8.0 mi South 5.8 mph - N/A   Clear
10:52 PM 17.1 °F 8.7 °F 10.9 °F 77% 30.13 in 8.0 mi South 5.8 mph - N/A   Clear
11:52 PM 18.0 °F 9.8 °F 12.0 °F 78% 30.11 in 8.0 mi South 5.8 mph - N/A   Clear